Date,TemperatureHighF,TemperatureAvgF,TemperatureLowF,DewpointHighF,DewpointAvgF,DewpointLowF,HumidityHigh,HumidityAvg,HumidityLow,PressureMaxIn,PressureMinIn,WindSpeedMaxMPH,WindSpeedAvgMPH,GustSpeedMaxMPH,PrecipitationSumIn
2013-7-1,83,74,72,75,70,68,94,88,72,29.84,29.70,3,0,7,0.96
2013-7-2,83,72,61,76,68,60,95,89,71,29.99,29.83,4,0,10,0.16
2013-7-3,86,74,61,76,67,59,96,82,61,29.98,29.89,7,0,20,0.00
2013-7-4,90,81,72,75,71,67,91,73,53,29.97,29.85,6,0,12,0.00
2013-7-5,91,83,75,78,71,66,84,70,52,29.93,29.80,6,0,12,0.00
2013-7-6,90,80,72,74,69,61,89,69,50,29.85,29.75,8,0,16,0.00
2013-7-7,88,78,68,73,68,61,85,71,58,29.79,29.68,4,0,7,0.00
2013-7-8,86,76,68,75,70,63,92,82,69,29.85,29.68,6,0,10,0.04
2013-7-9,73,69,65,68,65,62,91,87,81,29.89,29.81,0,0,2,0.00
2013-7-10,83,74,67,75,69,63,94,86,68,29.85,29.56,6,0,14,0.04
2013-7-11,81,75,72,79,71,63,93,88,74,29.71,29.54,3,0,7,0.01
2013-7-12,78,71,65,67,61,56,95,72,48,29.98,29.71,5,0,10,0.00
2013-7-13,77,70,64,70,65,58,91,82,74,30.08,29.98,2,0,5,0.01
2013-7-14,89,77,68,74,70,66,95,79,54,30.08,29.98,5,0,8,0.00
2013-7-15,84,84,84,73,73,73,71,71,71,29.98,29.98,0,0,0,0.00
2013-7-16,84,84,84,73,73,73,71,71,71,29.98,29.98,0,0,0,0.00
2013-7-17,84,84,84,73,73,73,71,71,71,29.98,29.98,0,0,0,0.00
2013-7-18,93,82,73,78,72,67,86,72,45,29.98,29.70,5,0,13,0.04
2013-7-19,97,84,72,77,72,68,92,70,42,29.71,29.49,5,1,20,0.00
2013-7-20,92,81,72,77,69,61,84,67,52,29.57,29.43,7,0,12,0.00
2013-7-21,84,73,64,68,63,59,89,72,54,29.76,29.57,2,0,6,0.00
2013-7-22,82,72,64,71,66,62,95,82,57,29.79,29.66,3,0,7,0.00
2013-7-23,78,71,68,74,68,64,96,92,83,29.66,29.30,6,0,13,1.35
2013-7-24,84,74,62,73,66,52,95,78,54,29.75,29.35,7,0,17,0.00
2013-7-25,64,60,56,58,53,47,94,78,66,29.88,29.75,8,0,14,0.05
2013-7-26,72,64,59,68,62,58,95,91,77,29.85,29.72,8,0,14,0.34
2013-7-27,83,70,58,68,61,55,91,74,46,29.83,29.76,5,0,10,0.00
2013-7-28,82,71,62,72,65,59,94,83,62,29.79,29.73,3,0,7,0.09
2013-7-29,84,73,67,72,67,64,95,82,59,29.82,29.72,5,0,10,0.00
2013-7-30,79,70,59,66,58,54,90,68,46,29.87,29.80,6,0,12,0.00
2013-7-31,80,70,58,64,59,55,90,71,45,29.91,29.81,3,0,7,0.00